Regional Weather Roundup
Issued by NWS

Home | Current Version | Previous Version | Text Only | Print | Product List | Glossary On
Versions: 1 2 3 4 5 6 7 8 9 10 11 12 13 14 15 16 17 18 19 20 21 22 23 24 25 26 27 28 29 30 31 32 33 34 35 36 37 38 39 40 41 42 43 44 45 46 47 48 49 50
150
ASUS43 KTOP 220659
RWRKS

WEATHER ROUNDUP FOR KANSAS
NATIONAL WEATHER SERVICE GOODLAND KS
100 AM CST WED FEB 22 2017

NOTE:  "FAIR" INDICATES FEW OR NO CLOUDS BELOW 12,000 FEET WITH NO
SIGNIFICANT WEATHER AND/OR OBSTRUCTIONS TO VISIBILITY.

KSZ001>006-013>018-027>032-041>047-220800-
NORTHWEST KANSAS

CITY           SKY/WX    TMP DP  RH WIND       PRES   REMARKS
GOODLAND       CLOUDY    61  11  14 W21G28    29.83F
HAYS             N/A     46  25  43 SW6       29.82F
HILL CITY      CLOUDY    57  25  29 W6        29.79F
RUSSELL        CLEAR     49  31  49 S16       29.79F
$$

KSZ061>065-074>080-084>089-220800-
SOUTHWEST KANSAS

CITY           SKY/WX    TMP DP  RH WIND       PRES   REMARKS
DODGE CITY     CLEAR     44  23  43 S12       29.87F
ELKHART          N/A     50  22  33 MISG        N/A
GARDEN CITY    CLEAR     44  24  45 W9        29.88F HAZE
GREAT BEND     CLEAR     46  34  62 S10       29.85F
LIBERAL        CLEAR     41  19  42 W9        29.90F
$$

KSZ066>073-081>083-090>101-220800-
SOUTHEAST KANSAS

CITY           SKY/WX    TMP DP  RH WIND       PRES   REMARKS
CHANUTE        CLEAR     45  39  79 S8        29.89F
COFFEYVILLE    CLEAR     44  41  89 CALM      29.91F
HUTCHINSON     CLEAR     51  37  58 S8        29.87S
MEDICINE LODGE   N/A     48  36  63 S5        29.89F
NEWTON         CLEAR     48  38  68 S12       29.87F
PARSONS        CLEAR     40  37  89 CALM      29.91F
WICHITA INTL   CLEAR     43  37  79 S7        29.88F
WICHITA JABRA  CLEAR     49  38  65 S7        29.87F
WINFIELD       CLEAR     45  38  76 CALM      29.90F
$$

KSZ007>012-019>026-033>040-048>060-102>105-220800-
NORTHEAST KANSAS

CITY           SKY/WX    TMP DP  RH WIND       PRES   REMARKS
CONCORDIA      CLOUDY    53  36  52 S21       29.78F
EMPORIA        CLEAR     44  34  67 S10       29.86F
LAWRENCE       CLOUDY    39  32  76 E3        29.86F
MANHATTAN      CLEAR     42  35  76 CALM      29.83F
OLATHE IND     CLEAR     43  37  79 S5        29.86F
OLATHE EXE     CLEAR     47  40  76 S7        29.86F
SALINA         CLEAR     52  37  56 S14       29.83F
TOPEKA BILLARD PTCLDY    42  34  73 CALM      29.85S
TOPEKA FORBES  CLEAR     48  34  58 SW10      29.85S
$$




USA.gov is the U.S. government's official web portal to all federal, state and local government web resources and services.